Meteo pe oră la Bucureşti

Astăzi, 24 Ianuarie, Duminică

Timp Temperatura Precipitaţii Vânt Presiune Umiditate
00:00 +7°C° 0.1 mm 3 m/s 745 mmHg 85%
01:00 +7°C° 0.1 mm 3 m/s 745 mmHg 85%
02:00 +8°C° 0.1 mm 3 m/s 744 mmHg 85%
03:00 +6°C° 0.3 mm 4 m/s 744 mmHg 87%
04:00 +6°C° 0.3 mm 4 m/s 744 mmHg 90%
05:00 +5°C° 0.3 mm 4 m/s 743 mmHg 93%
06:00 +5°C° 0 mm 3 m/s 744 mmHg 93%
07:00 +4°C° 0 mm 3 m/s 744 mmHg 92%
08:00 +3°C° 0 mm 3 m/s 745 mmHg 92%
09:00 +4°C° 0 mm 3 m/s 745 mmHg 87%
10:00 +6°C° 0 mm 2 m/s 745 mmHg 83%
11:00 +8°C° 0 mm 2 m/s 745 mmHg 78%
12:00 +9°C° 0 mm 2 m/s 745 mmHg 75%
13:00 +9°C° 0 mm 2 m/s 745 mmHg 71%
14:00 +10°C° 0 mm 2 m/s 744 mmHg 68%
15:00 +10°C° 0 mm 2 m/s 744 mmHg 71%
16:00 +9°C° 0 mm 2 m/s 745 mmHg 74%
17:00 +8°C° 0 mm 2 m/s 745 mmHg 77%
18:00 +8°C° 0 mm 2 m/s 745 mmHg 78%
19:00 +7°C° 0 mm 2 m/s 746 mmHg 80%
20:00 +6°C° 0 mm 2 m/s 746 mmHg 81%
21:00 +7°C° 0 mm 1 m/s 746 mmHg 81%
22:00 +7°C° 0 mm 1 m/s 746 mmHg 82%
23:00 +6°C° 0 mm 1 m/s 746 mmHg 82%

Mâine, 25 Ianuarie, Luni

Timp Temperatura Precipitaţii Vânt Presiune Umiditate
00:00 +5°C° 0 mm 2 m/s 745 mmHg 82%
01:00 +5°C° 0 mm 2 m/s 744 mmHg 83%
02:00 +4°C° 0 mm 3 m/s 744 mmHg 84%
03:00 +4°C° 0 mm 3 m/s 743 mmHg 85%
04:00 +4°C° 0 mm 4 m/s 742 mmHg 87%
05:00 +4°C° 0 mm 4 m/s 741 mmHg 88%
06:00 +5°C° 0.1 mm 5 m/s 740 mmHg 88%
07:00 +6°C° 0.1 mm 5 m/s 739 mmHg 88%
08:00 +7°C° 0.1 mm 5 m/s 738 mmHg 88%
09:00 +8°C° 0.3 mm 5 m/s 738 mmHg 86%
10:00 +8°C° 0.3 mm 6 m/s 737 mmHg 84%
11:00 +9°C° 0.3 mm 6 m/s 736 mmHg 83%
12:00 +9°C° 0.1 mm 7 m/s 737 mmHg 77%
13:00 +7°C° 0.1 mm 9 m/s 737 mmHg 72%
14:00 +7°C° 0.1 mm 10 m/s 737 mmHg 67%
15:00 +5°C° 0 mm 10 m/s 738 mmHg 65%
16:00 +3°C° 0 mm 10 m/s 739 mmHg 63%
17:00 +2°C° 0 mm 10 m/s 739 mmHg 61%
18:00 +1°C° 0 mm 11 m/s 740 mmHg 62%
19:00 +1°C° 0 mm 11 m/s 741 mmHg 64%
20:00 -1°C° 0 mm 12 m/s 742 mmHg 65%
21:00 -1°C° 0 mm 12 m/s 742 mmHg 67%
22:00 -1°C° 0 mm 11 m/s 743 mmHg 68%
23:00 -2°C° 0 mm 11 m/s 743 mmHg 70%

Poimâine, 26 Ianuarie, Marţi

Timp Temperatura Precipitaţii Vânt Presiune Umiditate
00:00 -2°C° 0 mm 11 m/s 744 mmHg 70%
01:00 -2°C° 0 mm 10 m/s 744 mmHg 71%
02:00 -2°C° 0 mm 10 m/s 745 mmHg 71%
03:00 -2°C° 0 mm 10 m/s 746 mmHg 69%
04:00 -1°C° 0 mm 9 m/s 746 mmHg 67%
05:00 -1°C° 0 mm 9 m/s 747 mmHg 65%
06:00 -3°C° 0 mm 9 m/s 748 mmHg 67%
07:00 -2°C° 0 mm 8 m/s 749 mmHg 69%
08:00 -2°C° 0 mm 8 m/s 749 mmHg 70%
09:00 -2°C° 0 mm 8 m/s 750 mmHg 67%
10:00 -1°C° 0 mm 7 m/s 751 mmHg 64%
11:00 0°C° 0 mm 7 m/s 751 mmHg 60%
12:00 +2°C° 0 mm 7 m/s 751 mmHg 56%
13:00 +3°C° 0 mm 7 m/s 752 mmHg 51%
14:00 +3°C° 0 mm 7 m/s 752 mmHg 46%
15:00 +3°C° 0 mm 6 m/s 752 mmHg 47%
16:00 +2°C° 0 mm 5 m/s 752 mmHg 48%
17:00 +3°C° 0 mm 4 m/s 753 mmHg 50%
18:00 +1°C° 0 mm 4 m/s 753 mmHg 52%
19:00 0°C° 0 mm 4 m/s 754 mmHg 54%
20:00 0°C° 0 mm 3 m/s 754 mmHg 56%
21:00 0°C° 0 mm 3 m/s 754 mmHg 59%
22:00 0°C° 0 mm 3 m/s 754 mmHg 61%
23:00 -1°C° 0 mm 3 m/s 754 mmHg 64%

27 Ianuarie, Miercuri

Timp Temperatura Precipitaţii Vânt Presiune Umiditate
00:00 -1°C° 0 mm 3 m/s 754 mmHg 65%
01:00 -1°C° 0 mm 2 m/s 754 mmHg 66%
02:00 -1°C° 0 mm 2 m/s 754 mmHg 68%
03:00 -1°C° 0 mm 2 m/s 754 mmHg 67%
04:00 -1°C° 0 mm 2 m/s 754 mmHg 67%
05:00 -1°C° 0 mm 2 m/s 754 mmHg 67%
06:00 -1°C° 0 mm 2 m/s 754 mmHg 67%
07:00 -1°C° 0 mm 2 m/s 754 mmHg 68%
08:00 -2°C° 0 mm 2 m/s 754 mmHg 68%
09:00 +1°C° 0 mm 2 m/s 754 mmHg 63%
10:00 +2°C° 0 mm 2 m/s 754 mmHg 57%
11:00 +3°C° 0 mm 2 m/s 754 mmHg 52%
12:00 +4°C° 0 mm 2 m/s 754 mmHg 50%
13:00 +4°C° 0 mm 2 m/s 753 mmHg 48%
14:00 +5°C° 0 mm 2 m/s 753 mmHg 46%
15:00 +5°C° 0 mm 1 m/s 753 mmHg 49%
16:00 +4°C° 0 mm 1 m/s 753 mmHg 52%
17:00 +4°C° 0 mm 1 m/s 753 mmHg 54%
18:00 +3°C° 0 mm 1 m/s 753 mmHg 56%
19:00 +3°C° 0 mm 1 m/s 754 mmHg 58%
20:00 +1°C° 0 mm 2 m/s 754 mmHg 60%
21:00 +1°C° 0 mm 2 m/s 754 mmHg 60%
22:00 +1°C° 0 mm 2 m/s 754 mmHg 60%
23:00 -1°C° 0 mm 2 m/s 754 mmHg 60%

28 Ianuarie, Joi

Timp Temperatura Precipitaţii Vânt Presiune Umiditate
00:00 +1°C° 0 mm 1 m/s 754 mmHg 60%
01:00 +1°C° 0 mm 1 m/s 754 mmHg 60%
02:00 +1°C° 0 mm 1 m/s 754 mmHg 59%
03:00 +1°C° 0 mm 1 m/s 754 mmHg 60%
04:00 +1°C° 0 mm 1 m/s 754 mmHg 61%
05:00 -1°C° 0 mm 2 m/s 754 mmHg 62%
06:00 -2°C° 0 mm 2 m/s 754 mmHg 62%
07:00 -2°C° 0 mm 2 m/s 754 mmHg 63%
08:00 -2°C° 0 mm 2 m/s 754 mmHg 63%
09:00 -1°C° 0 mm 2 m/s 754 mmHg 58%
10:00 0°C° 0 mm 3 m/s 754 mmHg 54%
11:00 +1°C° 0 mm 3 m/s 754 mmHg 50%
12:00 +2°C° 0 mm 3 m/s 753 mmHg 53%
13:00 +2°C° 0 mm 3 m/s 753 mmHg 56%
14:00 +3°C° 0 mm 3 m/s 752 mmHg 60%
15:00 +2°C° 0 mm 3 m/s 752 mmHg 68%
16:00 +2°C° 0 mm 2 m/s 752 mmHg 77%
17:00 +1°C° 0 mm 2 m/s 752 mmHg 86%
18:00 +1°C° 0 mm 2 m/s 752 mmHg 89%
19:00 +2°C° 0 mm 1 m/s 752 mmHg 92%
20:00 +1°C° 0 mm 1 m/s 752 mmHg 95%

29 Ianuarie, Vineri

Timp Temperatura Precipitaţii Vânt Presiune Umiditate
Arată mai mult

Formular de consimțământ

Meteoprog și furnizorii noștri de servicii pot stoca și accesa date personale, precum cookies, identificatori de dispozitiv sau alte tehnologii similare pe dispozitivul dumneavoastră și procesa astfel de date pentru a personaliza conținutul și reclamele, dar și pentru a oferi caracteristici de social media și pentru a analiza traficul.

  • Stocarea și/sau accesarea informațiilor pe dispozitivul dumneavoastră

    Cookies, identificatori de dispozitiv sau alte informații pot fi stocate sau accesate pe dispozitiv în scopurile indicate mai sus.

  • Reclame și conținut personalizat, evaluarea reclamelor și a conținutului, informații despre audiențe și dezvoltarea produselor

    Reclamele și conținutul pot fi personalizate pe baza unui profil. Pot fi adăugate date suplimentare pentru a personaliza mai bine reclamele și conținutul. Performanța reclamelor și conținutului poate fi măsurată. Pot fi obținute informații despre utilizatorii care au văzut reclamele și conținutul. Aceste date pot fi utilizate pentru a dezvolta sau îmbunătăți experiența utilizatorilor, sistemele și software-ul.

Dând clic pe ‘Sunt de acord’, permiteți utilizarea cookie-urilor menționate, a identificatorilor de dispozitiv, balizelor web sau altor tehnologii similare. Setările pot fi modificate din browser-ul dispozitivului dumneavoastră.

În anumite scopuri, interesele legitime pot prima asupra consimțământului. Puteți citi mai multe informații în acest sens în Politica privind Confidențialitatea Datelor și Cookie.